AirNav   Pilot Hours Calculator
 
 532 users online  

T00 Chambers County Airport
Anahuac, Texas, USA

GOING TO ANAHUAC?


FAA INFORMATION EFFECTIVE 25 MARCH 2021

Location

FAA Identifier: T00
Lat/Long: 29-46-11.3332N 094-39-48.5535W
29-46.188887N 094-39.809225W
29.7698148,-94.6634871
(estimated)
Elevation: 21.2 ft. / 6.5 m (surveyed)
Variation: 05E (1995)
From city: 1 mile E of ANAHUAC, TX
Time zone: UTC -5 (UTC -6 during Standard Time)
Zip code: 77514

Airport Operations

Airport use: Open to the public
Activation date: 10/1978
Control tower: no
ARTCC: HOUSTON CENTER
FSS: MONTGOMERY COUNTY FLIGHT SERVICE STATION
NOTAMs facility: CXO (NOTAM-D service available)
Attendance: MON-FRI 0800-1700
Wind indicator: lighted
Segmented circle: yes
Lights: DUSK-DAWN. MIRL RWY 12/30 PRESET LOW INTST; TO INCR INTST ACTVT - CTAF.
Beacon: white-green (lighted land airport)
Operates sunset to sunrise.

Airport Communications

CTAF: 122.9
HOUSTON APPROACH: 134.45 [0600-0000]
HOUSTON DEPARTURE: 134.45 [0600-0000]
BLTWY RNAV DP: 134.45
BLUEBELL STAR: 124.225
BORRN RNAV DP: 134.45
CESAN STAR: 121.3
DREMR DP: 134.45
HOODO RNAV DP: 134.45
HUDZY STAR: 120.05
INDIE RNAV DP: 134.45
KARRR RNAV DP: 134.45
LURIC DP: 134.45
MMALT RNAV DP: 134.45
OHIIO STAR: 120.05
STRYA DP: 134.45
STYCK DP: 134.45
TKNIQ STAR: 119.625
WAPPL STAR: 120.05
WATFO DP: 134.45
WYLSN RNAV DP: 134.45

Nearby radio navigation aids

VOR radial/distance  VOR name  Freq  Var
MHFr011/14.1TRINITY VOR/DME113.6007E
DASr177/25.2DAISETTA VORTAC116.9005E
VUHr014/31.9SCHOLES VOR/DME113.0006E
SBIr272/33.0SABINE PASS VOR/DME115.4007E
BPTr246/35.3BEAUMONT VOR/DME114.5007E
IAHr103/37.2HUMBLE VORTAC116.6005E

 
NDB name  Hdg/Dist  Freq  Var  ID
GOODHUE226/29.636807EGDE --. -.. .

Airport Services

Fuel available: 100LL JET-A
Parking: tiedowns
Bottled oxygen: NONE
Bulk oxygen: NONE

Runway Information

Runway 12/30

Dimensions: 3005 x 60 ft. / 916 x 18 m
Surface: asphalt, in poor condition
EXTSV CRACKING WITH VEGETATION GROWING THRU.
Weight bearing capacity: 
Single wheel: 13.0
Runway edge lights: medium intensity
RUNWAY 12  RUNWAY 30
Latitude: 29-46.363987N29-46.053815N
Longitude: 094-39.966058W094-39.522763W
Elevation: 20.4 ft.20.4 ft.
Traffic pattern: leftright
Runway heading: 124 magnetic, 129 true304 magnetic, 309 true
Markings: nonprecision, in good conditionnonprecision, in good condition
Visual slope indicator: 2-light PAPI on left (4.00 degrees glide path)
Touchdown point: yes, no lightsyes, no lights
Obstructions: 45 ft. pole, 882 ft. from runway, 160 ft. left of centerline, 15:1 slope to clear15 ft. road, 530 ft. from runway, 280 ft. left of centerline, 22:1 slope to clear

Runway 17/35

Dimensions: 1900 x 300 ft. / 579 x 91 m
Surface: turf, in good condition
RUNWAY 17  RUNWAY 35
Latitude: 29-46.313965N29-46.000500N
Longitude: 094-39.911733W094-39.911733W
Elevation: 20.0 ft.20.0 ft.
Traffic pattern: leftright
Runway heading: 175 magnetic, 180 true355 magnetic, 000 true
Markings: none, in good conditionnone, in good condition
Touchdown point: yes, no lightsyes, no lights
Obstructions: 60 ft. trees, 890 ft. from runway, 90 ft. left of centerline, 14:1 slope to clear17 ft. road, 230 ft. from runway, 13:1 slope to clear

Airport Ownership and Management from official FAA records

Ownership: Publicly-owned
Owner: CHAMBERS COUNTY
PO BOX 938
ANAHUAC, TX 77514
Phone 409-267-2400
Manager: KELLY TRAHAN
PO BOX 938
ANAHUAC, TX 77514
Phone 409-267-2719

Airport Operational Statistics

Aircraft based on the field: 9
Single engine airplanes: 8
Multi engine airplanes: 1
    
Aircraft operations: avg 46/week *
67% local general aviation
33% transient general aviation
* for 12-month period ending 23 April 2020

Additional Remarks

RWY 17/35 SOFT WHEN WET.
RWY 17, PAPI RWY 12 IN RWY 17 APCH, DO NOT LAND BFR XNG RWY 12.
FOR CD CTC HOUSTON APCH AT 281-443-5844 TO CNL IFR CALL 281-443-5888.

Instrument Procedures

NOTE: All procedures below are presented as PDF files. If you need a reader for these files, you should download the free Adobe Reader.

NOT FOR NAVIGATION. Please procure official charts for flight.
FAA instrument procedures published for use from 25 March 2021 at 0901Z to 22 April 2021 at 0900z.

 
STARs - Standard Terminal Arrivals
BLUBELL FOUR   download (328KB)
CESAN FOUR (RNAV)   2 pages: [1] [2] (426KB)
HUDZY FOUR   2 pages: [1] [2] (367KB)
OHIIO FOUR   download (317KB)
TKNIQ TWO (RNAV)   2 pages: [1] [2] (352KB)
TSHRT ONE ARRIVAL   2 pages: [1] [2] (399KB)
WAPPL FIVE (RNAV)   2 pages: [1] [2] (444KB)
WAPPL FIVE (RNAV), CONT.2   download (296KB)
 
IAPs - Instrument Approach Procedures
RNAV (GPS) RWY 12   download (198KB)
 
Departure Procedures
BLTWY SIX (RNAV)   download (164KB)
BORRN FOUR (RNAV)   2 pages: [1] [2] (319KB)
HOODO SIX (RNAV)   download (213KB)
INDIE SEVEN (RNAV)   download (188KB)
KARRR SIX (RNAV)   2 pages: [1] [2] (275KB)
LURIC SEVEN (RNAV)   download (207KB)
MMALT FIVE (RNAV)   download (223KB)
PALACIOS ONE   2 pages: [1] [2] (328KB)
STRYA SEVEN (RNAV)   download (196KB)
STYCK SEVEN (RNAV)   download (182KB)
WATFO FIVE (RNAV)   download (169KB)
WYLSN SEVEN (RNAV)   download (171KB)
NOTE: Special Take-Off Minimums/Departure Procedures apply   download (70KB)

Other nearby airports with instrument procedures:

54T - RWJ Airpark (10 nm W)
KHPY - Baytown Airport (15 nm W)
T78 - Liberty Municipal Airport (19 nm N)
T41 - La Porte Municipal Airport (22 nm W)
KEFD - Ellington Airport (28 nm W)
 
Loc | Ops | Rwys | IFR | FBO | Links
Com | Nav | Svcs | Stats | Notes
Area around T00 (Chambers County Airport)
 
Road maps at: MapQuest Bing Google
 
Aerial photo
WARNING: Photo may not be current or correct
Aerial photo of T00 (Chambers County Airport)
Photo taken 04-Mar-2007
on final for runway 30

Do you have a better or more recent aerial photo of Chambers County Airport that you would like to share? If so, please send us your photo.

 
Sectional chart

 
Airport distance calculator
Flying to Chambers County Airport? Find the distance to fly.

From to T00

Sunrise and sunset
Times for 11-Apr-2021
 Local
(UTC-5)
 Zulu
(UTC)
Morning civil twilight06:3311:33
Sunrise06:5711:57
Sunset19:4200:42
Evening civil twilight20:0601:06

Current date and time
Zulu (UTC)  11-Apr-2021 05:21:44
Local (UTC-5)  11-Apr-2021 00:21:44
 
METAR
KT41 
22nm W 
110455Z AUTO 01007KT 10SM CLR 19/06 A2980 RMK AO2 T01930060
KEFD 
28nm W 
110450Z 34005KT 10SM CLR 18/03 A2979
KBMT 
29nm NE 
110455Z AUTO 00000KT 10SM CLR 18/08 A2980 RMK AO2 T01820079
KGLS 
32nm S 
110452Z AUTO 01005KT 10SM CLR 21/19 A2979 RMK AO2 SLP086 T02110189
KHOU 
33nm W 
110453Z 01007KT 10SM CLR 20/02 A2980 RMK AO2 SLP094 T02000022
KLVJ 
34nm SW 
110453Z AUTO 35004KT 10SM CLR 18/06 A2981 RMK AO2 SLP093 T01830056
KBPT 
35nm E 
110453Z AUTO 01003KT 10SM CLR 17/09 A2979 RMK AO2 SLP086 T01720094
KIAH 
39nm W 
110453Z 35006KT 10SM CLR 17/03 A2980 RMK AO2 SLP091 T01720028
K6R3 
39nm NW 
110455Z AUTO 35003KT 10SM CLR 13/08 A2983 RMK AO2 T01310079
TAF
KEFD 
28nm W 
110400Z 1104/1210 35006KT 9999 SKC QNH2972INS BECMG 1117/1118 14009KT 9999 SKC QNH2970INS TX28/1121Z TN13/1112Z
KGLS 
32nm S 
101901Z 1019/1118 35015KT P6SM BKN035 FM111000 04012KT P6SM SKC FM111500 09010KT P6SM SKC
KHOU 
33nm W 
110300Z 1103/1124 01009KT P6SM SKC FM111200 08007KT P6SM SKC FM111700 15008KT P6SM SKC
KBPT 
35nm E 
102320Z 1100/1124 36006KT P6SM SKC FM111100 VRB04KT P6SM SKC FM111500 08006KT P6SM SKC FM112300 15006KT P6SM FEW250
NOTAMs
Click for the latest NOTAMs
NOTAMs are issued by the DoD/FAA and will open in a separate window not controlled by AirNav.

 

 
 

FBO, Fuel Providers, and Aircraft Ground Support

  
 Business Name 
 
 Contact 
 
 Services / Description 
 
Fuel Prices
 
Comments
  
Chambers County Anahuac Airport 409-267-2719
no information available

If you are affiliated with Chambers County Anahuac Airport and would like to show here your services, contact info, web link, logo, and more, click here
100LL Jet A
SS $4.00 $3.40 
 Updated 30-Mar-2021
 
   write
SS=Self service
Update Fuel Prices
 

Would you like to see your business listed on this page?

 If your business provides an interesting product or service to pilots, flight crews, aircraft, or users of the Chambers County Airport, you should consider listing it here.  To start the listing process, click on the button below
 
Add a business
 

Other Pages about Chambers County Airport

www.co.chambers.tx.us/...
 
Update a link
 
Copyright © AirNav, LLC. All rights reserved. Privacy Policy  Contact